Date String (YYYY-MM-DD hh:mm:ss) UTC,Instrument flags,Ambient pressure (hPa),Sample flow (lpm),Bypass flow (lpm),Sample temperature (°C),Ambient temperature (°C),ASC tube jacket temperature (°C),LED temperature (°C),Box temperature (°C),Sample RH (%),Span deviation,Mass concentration (μg/m³),Mass concentration (μg/m³),Mass concentration (μg/m³)
DateTimeUTC,F1_M11,P_M11,Q1_M11,Q2_M11,T1_M11,T2_M11,T3_M11,T4_M11,T5_M11,U1_M11,ZSPAN_M11,X0_M11,X2_M11,X1_M11
2022-09-21 01:00:00,,0827.2,5.00,0.00,29.7,26.9,00.0,38.2,31.5,18.2,0000.0,0013.27,0003.82,0002.68
2022-09-21 01:01:00,,0827.1,5.00,0.00,29.6,26.2,00.0,38.2,31.4,18.3,0000.0,0013.68,0003.78,0002.70
2022-09-21 01:02:00,,0827.1,4.99,0.00,29.6,26.4,00.0,38.1,31.4,18.3,0000.0,0013.70,0003.75,0002.72
2022-09-21 01:03:00,,0827.1,5.00,0.00,29.5,26.7,00.0,38.1,31.2,18.4,0000.0,0013.79,0003.74,0002.72
2022-09-21 01:04:00,,0827.2,5.00,0.00,29.5,27.0,00.0,38.1,31.2,18.5,0000.0,0013.78,0003.75,0002.73
2022-09-21 01:05:00,,0827.2,5.01,0.00,29.5,27.4,00.0,38.1,31.2,18.7,0000.0,0014.54,0003.73,0002.74
2022-09-21 01:06:00,,0827.2,4.99,0.00,29.5,27.7,00.0,38.1,31.3,18.7,0000.0,0015.03,0003.74,0002.77
2022-09-21 01:07:00,,0827.2,5.00,0.00,29.5,27.9,00.0,38.1,31.4,18.8,0000.0,0015.16,0003.74,0002.78
2022-09-21 01:08:00,,0827.2,5.01,0.00,29.5,28.1,00.0,38.1,31.4,18.7,0000.0,0015.40,0003.72,0002.79
2022-09-21 01:09:00,,0827.2,5.00,0.00,29.5,28.2,00.0,38.2,31.4,18.6,0000.0,0015.36,0003.73,0002.80
2022-09-21 01:10:00,,0827.2,5.00,0.00,29.6,28.4,00.0,38.2,31.5,18.6,0000.0,0015.35,0003.75,0002.81
2022-09-21 01:11:00,,0827.2,4.99,0.00,29.6,28.5,00.0,38.2,31.6,18.4,0000.0,0015.63,0003.77,0002.81
2022-09-21 01:12:00,,0827.2,5.00,0.00,29.7,28.7,00.0,38.2,31.6,18.1,0000.0,0014.65,0003.79,0002.80
2022-09-21 01:13:00,,0827.3,5.01,0.00,29.7,28.2,00.0,38.2,31.7,18.1,0000.0,0014.31,0003.80,0002.82
2022-09-21 01:14:00,,0827.3,4.99,0.00,29.7,26.8,00.0,38.2,31.5,18.0,0000.0,0013.79,0003.84,0002.83
2022-09-21 01:15:00,,0827.3,4.99,0.00,29.6,26.2,00.0,38.2,31.5,18.0,0000.0,0014.09,0003.87,0002.84
2022-09-21 01:16:00,,0827.4,5.00,0.00,29.6,26.4,00.0,38.2,31.4,18.0,0000.0,0012.45,0003.85,0002.83
2022-09-21 01:17:00,,0827.4,4.99,0.00,29.5,26.7,00.0,38.1,31.2,18.1,0000.0,0011.27,0003.82,0002.82
2022-09-21 01:18:00,,0827.4,5.01,0.00,29.5,27.1,00.0,38.1,31.2,18.0,0000.0,0011.78,0003.82,0002.81
2022-09-21 01:19:00,,0827.4,5.00,0.00,29.5,27.4,00.0,38.1,31.2,17.9,0000.0,0011.48,0003.81,0002.79
2022-09-21 01:20:00,,0827.4,4.99,0.00,29.5,27.6,00.0,38.1,31.3,17.9,0000.0,0012.23,0003.78,0002.77
2022-09-21 01:21:00,,0827.4,5.00,0.00,29.5,27.9,00.0,38.1,31.4,17.9,0000.0,0012.53,0003.77,0002.76
2022-09-21 01:22:00,,0827.4,4.99,0.00,29.5,28.1,00.0,38.1,31.4,17.8,0000.0,0011.76,0003.78,0002.76
2022-09-21 01:23:00,,0827.4,5.00,0.00,29.5,28.3,00.0,38.2,31.5,17.7,0000.0,0011.74,0003.81,0002.77
2022-09-21 01:24:00,,0827.4,5.02,0.00,29.6,28.4,00.0,38.2,31.5,17.6,0000.0,0011.81,0003.86,0002.75
2022-09-21 01:25:00,,0827.5,4.99,0.00,29.6,28.5,00.0,38.2,31.6,17.6,0000.0,0012.52,0003.87,0002.75
2022-09-21 01:26:00,,0827.5,5.00,0.00,29.7,28.6,00.0,38.2,31.6,17.2,0000.0,0012.34,0003.85,0002.74
2022-09-21 01:27:00,,0827.5,5.00,0.00,29.7,28.6,00.0,38.3,31.7,17.3,0000.0,0013.18,0003.90,0002.74
2022-09-21 01:28:00,,0827.5,4.99,0.00,29.7,27.4,00.0,38.3,31.6,17.4,0000.0,0013.43,0003.91,0002.73
2022-09-21 01:29:00,,0827.5,5.00,0.00,29.7,26.3,00.0,38.2,31.5,17.4,0000.0,0013.76,0003.93,0002.73
2022-09-21 01:30:00,,0827.5,5.00,0.00,29.6,26.3,00.0,38.2,31.4,17.5,0000.0,0014.10,0003.93,0002.73
2022-09-21 01:31:00,,0827.5,5.00,0.00,29.6,26.6,00.0,38.2,31.3,17.6,0000.0,0014.47,0003.92,0002.74
2022-09-21 01:32:00,,0827.5,5.00,0.00,29.5,26.9,00.0,38.2,31.2,17.6,0000.0,0014.21,0003.89,0002.74
2022-09-21 01:33:00,,0827.5,5.01,0.00,29.5,27.3,00.0,38.1,31.3,17.5,0000.0,0013.76,0003.82,0002.72
2022-09-21 01:34:00,,0827.5,5.01,0.00,29.5,27.6,00.0,38.1,31.3,17.6,0000.0,0013.68,0003.77,0002.71
2022-09-21 01:35:00,,0827.5,4.99,0.00,29.5,27.8,00.0,38.1,31.3,17.6,0000.0,0013.99,0003.70,0002.70
2022-09-21 01:36:00,,0827.5,5.00,0.00,29.5,28.0,00.0,38.2,31.4,17.6,0000.0,0013.66,0003.62,0002.67
2022-09-21 01:37:00,,0827.5,5.02,0.00,29.5,28.2,00.0,38.2,31.4,17.5,0000.0,0013.04,0003.60,0002.65
2022-09-21 01:38:00,,0827.6,4.99,0.00,29.6,28.4,00.0,38.2,31.5,17.4,0000.0,0012.63,0003.52,0002.61
2022-09-21 01:39:00,,0827.6,5.00,0.00,29.6,28.5,00.0,38.2,31.6,17.5,0000.0,0012.87,0003.47,0002.57
2022-09-21 01:40:00,,0827.6,5.01,0.00,29.7,28.6,00.0,38.2,31.6,17.4,0000.0,0012.58,0003.44,0002.54
2022-09-21 01:41:00,,0827.6,4.99,0.00,29.7,28.7,00.0,38.3,31.6,17.4,0000.0,0012.49,0003.44,0002.51
2022-09-21 01:42:00,,0827.7,5.01,0.00,29.7,27.9,00.0,38.3,31.7,17.4,0000.0,0011.42,0003.42,0002.47
2022-09-21 01:43:00,,0827.7,5.01,0.00,29.7,26.5,00.0,38.3,31.5,17.5,0000.0,0011.32,0003.39,0002.43
2022-09-21 01:44:00,,0827.7,4.99,0.00,29.6,26.2,00.0,38.2,31.5,17.5,0000.0,0011.54,0003.41,0002.40
2022-09-21 01:45:00,,0827.8,5.00,0.00,29.6,26.4,00.0,38.2,31.3,17.6,0000.0,0012.91,0003.36,0002.37
2022-09-21 01:46:00,,0827.7,5.00,0.00,29.5,26.7,00.0,38.2,31.2,17.7,0000.0,0012.95,0003.35,0002.35
2022-09-21 01:47:00,,0827.7,5.00,0.00,29.5,27.1,00.0,38.2,31.2,17.7,0000.0,0012.82,0003.33,0002.33
2022-09-21 01:48:00,,0827.7,5.00,0.00,29.5,27.4,00.0,38.1,31.3,17.7,0000.0,0013.11,0003.31,0002.32
2022-09-21 01:49:00,,0827.7,4.98,0.00,29.5,27.7,00.0,38.1,31.3,17.7,0000.0,0013.05,0003.33,0002.31
2022-09-21 01:50:00,,0827.7,5.02,0.00,29.5,27.9,00.0,38.1,31.4,17.7,0000.0,0013.00,0003.37,0002.32
2022-09-21 01:51:00,,0827.7,5.00,0.00,29.5,28.1,00.0,38.2,31.4,17.7,0000.0,0012.36,0003.35,0002.33
2022-09-21 01:52:00,,0827.7,4.99,0.00,29.5,28.2,00.0,38.2,31.4,17.6,0000.0,0011.79,0003.31,0002.31
2022-09-21 01:53:00,,0827.7,5.01,0.00,29.6,28.4,00.0,38.2,31.5,17.6,0000.0,0011.35,0003.28,0002.30
2022-09-21 01:54:00,,0827.7,5.00,0.00,29.6,28.5,00.0,38.2,31.6,17.6,0000.0,0011.13,0003.32,0002.30
2022-09-21 01:55:00,,0827.8,5.00,0.00,29.7,28.6,00.0,38.3,31.6,17.6,0000.0,0010.95,0003.32,0002.31
2022-09-21 01:56:00,,0827.9,5.00,0.00,29.7,28.7,00.0,38.3,31.7,17.6,0000.0,0010.01,0003.31,0002.30
2022-09-21 01:57:00,,0827.9,5.02,0.00,29.7,28.5,00.0,38.3,31.7,17.5,0000.0,0009.86,0003.30,0002.29
2022-09-21 01:58:00,,0827.9,5.00,0.00,29.7,27.1,00.0,38.3,31.7,17.4,0000.0,0009.58,0003.36,0002.31
2022-09-21 01:59:00,,0827.9,4.99,0.00,29.7,26.2,00.0,38.3,31.5,17.4,0000.0,0010.48,0003.39,0002.30
